Historique des stations

Station météo de Le Mesnil-Thomas

Altitude de la station : 196 m







Données météorologiques pour le 20/01/2022
Date
Heure
Températures Humidité Point de rosée Vitesse
du vent
Direction Rafales Windchill Pression Pluviométrie
Cumul
Date
Heure
Températures Humidité Point de rosée Vitesse
du vent
Direction Rafales Windchill Pression Pluviométrie
Cumul
20/01/2022 11:594.1 °C94 %3.3 °C11 km/hNO16 km/h2.8 1035 hPa0.2 mm
20/01/2022 11:453.7 °C94 %2.8 °C6 km/hNO11 km/h2.2 1035 hPa0.2 mm
20/01/2022 11:443.7 °C94 %2.8 °C6 km/hNO16 km/h2.2 1035 hPa0.2 mm
20/01/2022 11:293.4 °C94 %2.8 °C5 km/hNO16 km/h2.2 1035 hPa0.2 mm
20/01/2022 11:143.3 °C95 %2.8 °C2 km/hNO16 km/h3.3 1034 hPa0.2 mm
20/01/2022 10:593.2 °C95 %2.2 °C-NO16 km/h2.8 1034 hPa0.2 mm
20/01/2022 10:442.8 °C95 %2.2 °C6 km/hONO16 km/h1.7 1034 hPa0.2 mm
20/01/2022 10:302.1 °C95 %1.7 °C6 km/hONO10 km/h1.1 1034 hPa0.2 mm
20/01/2022 10:282.1 °C95 %1.1 °C6 km/hONO16 km/h1.1 1034 hPa0.2 mm
20/01/2022 10:141.6 °C95 %1.1 °C3 km/hONO16 km/h1.1 1034 hPa0.2 mm
20/01/2022 09:591.1 °C95 %0.6 °C3 km/hONO16 km/h1.1 1034 hPa0.2 mm
20/01/2022 09:440.7 °C95 %0.0 °C2 km/hONO16 km/h0.6 1034 hPa0.2 mm
20/01/2022 09:290.6 °C94 %-0.6 °C2 km/hONO16 km/h0.6 1034 hPa0.2 mm
20/01/2022 09:150.5 °C94 %-0.6 °C2 km/hONO3 km/h0.6 1034 hPa0.2 mm
20/01/2022 09:140.5 °C95 %0.0 °C2 km/hONO16 km/h0.6 1034 hPa0.2 mm
20/01/2022 08:590.5 °C95 %0.0 °C-ONO16 km/h0.6 1034 hPa0.2 mm
20/01/2022 08:440.4 °C94 %-0.6 °C-ONO16 km/h0.6 1034 hPa0.2 mm
20/01/2022 08:290.6 °C94 %-0.6 °C-ONO16 km/h0.6 1033 hPa0.2 mm
20/01/2022 08:140.8 °C95 %0.0 °C-ONO16 km/h1.1 1033 hPa0.2 mm
20/01/2022 07:590.8 °C94 %0.0 °C3 km/hONO16 km/h1.1 1033 hPa0.2 mm
20/01/2022 07:440.8 °C94 %0.0 °C-ONO16 km/h0.6 1033 hPa0.2 mm
20/01/2022 07:300.8 °C94 %0.0 °C3 km/hONO5 km/h0.6 1032 hPa0.2 mm
20/01/2022 07:280.8 °C94 %0.0 °C3 km/hONO16 km/h0.6 1033 hPa0.2 mm
20/01/2022 07:150.9 °C95 %0.0 °C3 km/hONO5 km/h0.6 1032 hPa0.2 mm
20/01/2022 07:140.9 °C95 %0.0 °C3 km/hONO16 km/h0.6 1032 hPa0.2 mm
20/01/2022 06:591.1 °C95 %0.6 °C3 km/hONO16 km/h0.0 1032 hPa0.2 mm
20/01/2022 06:441.2 °C95 %0.6 °C5 km/hONO16 km/h0.0 1032 hPa0.2 mm
20/01/2022 06:301.1 °C94 %0.0 °C5 km/hONO16 km/h0.0 1032 hPa0.2 mm
20/01/2022 06:151.1 °C95 %0.6 °C-ONO3 km/h1.1 1032 hPa0.2 mm
20/01/2022 06:121.1 °C94 %0.0 °C2 km/hONO16 km/h1.1 1032 hPa0.2 mm
20/01/2022 05:591.2 °C95 %0.6 °C2 km/hONO16 km/h0.6 1032 hPa0.2 mm
20/01/2022 05:441.3 °C95 %0.6 °C-ONO16 km/h1.1 1032 hPa0.2 mm
20/01/2022 05:301.4 °C94 %0.6 °C3 km/hONO6 km/h0.0 1032 hPa0.2 mm
20/01/2022 05:281.4 °C94 %0.6 °C5 km/hONO16 km/h0.0 1032 hPa0.2 mm
20/01/2022 05:141.5 °C94 %0.6 °C5 km/hONO16 km/h0.0 1032 hPa0.2 mm
20/01/2022 04:591.8 °C94 %1.1 °C5 km/hONO16 km/h1.7 1032 hPa0.2 mm
20/01/2022 04:441.9 °C95 %1.1 °C6 km/hNO16 km/h0.6 1032 hPa0.2 mm
20/01/2022 04:291.9 °C94 %1.1 °C5 km/hONO16 km/h0.6 1031 hPa0.2 mm
20/01/2022 04:152.4 °C94 %1.7 °C5 km/hONO6 km/h1.1 1031 hPa0.2 mm
20/01/2022 04:142.4 °C94 %1.7 °C3 km/hONO16 km/h1.1 1031 hPa0.2 mm
20/01/2022 03:592.8 °C94 %1.7 °C6 km/hNO16 km/h1.1 1031 hPa0.2 mm
20/01/2022 03:443.1 °C94 %2.2 °C5 km/hNO16 km/h2.2 1032 hPa0.2 mm
20/01/2022 03:283.2 °C95 %2.2 °C5 km/hNO16 km/h1.7 1032 hPa0.2 mm
20/01/2022 03:143.3 °C94 %2.2 °C6 km/hNO16 km/h1.7 1031 hPa0.2 mm
20/01/2022 03:003.7 °C94 %2.8 °C6 km/hNO8 km/h2.2 1031 hPa0.2 mm
20/01/2022 02:593.7 °C94 %2.8 °C6 km/hNO16 km/h2.8 1031 hPa0.2 mm
20/01/2022 02:443.6 °C95 %2.8 °C3 km/hNO16 km/h2.8 1031 hPa0.2 mm
20/01/2022 02:293.3 °C94 %2.2 °C3 km/hNO16 km/h1.7 1031 hPa0.2 mm
20/01/2022 02:143.9 °C94 %3.3 °C5 km/hONO16 km/h2.8 1030 hPa0.2 mm
20/01/2022 02:004.4 °C94 %3.3 °C5 km/hO16 km/h3.3 1030 hPa0.2 mm
20/01/2022 01:444.5 °C94 %3.9 °C3 km/hO16 km/h3.9 1030 hPa-
20/01/2022 01:304.8 °C94 %3.9 °C3 km/hONO16 km/h5.0 1030 hPa-
20/01/2022 01:155.3 °C94 %4.4 °C3 km/hNO8 km/h5.6 1030 hPa-
20/01/2022 01:145.3 °C94 %4.4 °C5 km/hNO16 km/h5.6 1030 hPa-
20/01/2022 00:595.7 °C94 %5.0 °C6 km/hNO16 km/h4.4 1031 hPa-
20/01/2022 00:445.8 °C95 %5.0 °C11 km/hONO16 km/h3.9 1031 hPa-
20/01/2022 00:295.7 °C95 %5.0 °C8 km/hONO13 km/h3.9 1031 hPa-
20/01/2022 00:155.6 °C95 %5.0 °C5 km/hO8 km/h5.0 1030 hPa-
20/01/2022 00:145.6 °C95 %5.0 °C5 km/hO8 km/h5.0 1030 hPa-


Minima :

Température : 0.4 °C
Humidité : 94 %
Point de rosée : -0.6 °C
Vent moyen : 2 km/h
Windchill : 0.0
Pression atm. : 1030 hPa
Maxima :

Température : 5.8 °C
Humidité : 95 %
Point de rosée : 5.0 °C
Vent moyen : 11 km/h
Windchill : 5.6
Pression atm. : 1035 hPa
Rafales max : 16 km/h
Cumul de pluie sur 24H : 0.2 mm

Le Mesnil-Thomas est une commune du département Eure-et-Loir (28).
La station météorologique du réseau de l'association la plus proche de Le Mesnil-Thomas est celle de Digny



Icône Facebook Association Météo Centre Icône Twitter Association Météo Centre Icône Chaîne Youtube Association Météo Centre Icône contact Association Météo Centre Icône Insta Association Météo Centre